[[{"header":{"parameterUnit":"m.s-1","parameterCategory":1,"la1":30.2991,"la2":30.254,"lo1":-89.0895,"lo2":-89.0444,"dy":0.0017,"dx":0.0017,"nx":28,"ny":28,"refTime":"2024-02-13T09:00:00:Z","depth":0,"parameterNumber":2,"parameterNumberName":"U-component_of_WINDS"},"data":[0,0,0,0,0,0,0,0,0,0,0,0,0,0,0,0,0,0,0,0,0,0,0,0,0,0,0,0,0,0,0,0,0,0,0,0,0,0,0,0,0,0,0,0,0,0,0,0,0,0,0,0,0,0,0,0,0,0,-0.7484,-0.7485,0,-0.7551,-0.7552,-0.7553,-0.7526,-0.7524,-0.7522,-0.7521,-0.7591,-0.7594,-0.7597,0,0,0,0,0,0,0,0,0,0,0,0,0,-0.7333,-0.7336,-0.7484,-0.7485,-0.7486,-0.7551,-0.7552,-0.7553,-0.7526,-0.7524,-0.7522,-0.752,-0.759,-0.7594,-0.7598,0,0,0,0,0,0,0,0,0,0,0,0,0,-0.74,-0.7337,-0.7484,-0.748,-0.748,-0.7551,-0.7552,-0.7553,-0.7526,-0.7524,-0.7521,-0.7519,-0.7588,-0.7593,-0.7598,-0.7677,0,0,-0.7614,-0.7616,0,0,0,0,0,0,0,0,-0.7396,-0.7405,-0.748,-0.748,-0.7481,-0.7528,-0.7525,-0.7595,-0.7527,-0.7509,-0.7521,-0.7518,-0.7572,-0.7578,-0.7596,-0.7681,-0.7684,-0.7614,-0.7617,-0.7619,-0.7621,0,0,0,0,0,0,0,-0.7391,-0.7402,-0.7511,-0.7481,-0.7482,-0.7475,-0.7482,-0.7538,-0.7553,-0.751,-0.7508,-0.7517,-0.7572,-0.7591,-0.7597,-0.7685,-0.7614,-0.7618,-0.7621,-0.7623,-0.7839,-0.7841,0,0,0,0,0,0,-0.7387,-0.7399,-0.7509,-0.7513,-0.7432,-0.748,-0.7488,-0.7515,-0.7552,-0.7556,-0.7519,-0.7515,-0.7584,-0.7592,-0.76,-0.7696,-0.7619,-0.7624,-0.7627,-0.7836,-0.7839,-0.7842,0,0,0,0,0,0,-0.7383,-0.7397,-0.7506,-0.7455,-0.7469,-0.7485,-0.7516,-0.7518,-0.7537,-0.7559,-0.7561,-0.7536,-0.7582,-0.7593,-0.7658,-0.7698,-0.7626,-0.7631,-0.7833,-0.7837,-0.7841,-0.7888,0,0,0,0,0,0,-0.7379,-0.7396,-0.7425,-0.7456,-0.7471,-0.7563,-0.7519,-0.7521,-0.7546,-0.7542,-0.7575,-0.7579,-0.7581,-0.7651,-0.7663,-0.7704,-0.7635,-0.7829,-0.7835,-0.7839,-0.7883,-0.7893,-0.7902,0,0,0,0,0,-0.7374,-0.7436,-0.7427,-0.7441,-0.7509,-0.7566,-0.7574,-0.7576,-0.7549,-0.758,-0.7593,-0.7578,-0.7691,-0.7658,-0.7672,-0.7714,-0.7827,-0.7833,-0.7839,-0.7879,-0.7891,-0.7902,0,0,0,0,0,0,-0.741,-0.744,-0.743,-0.7504,-0.7533,-0.7561,-0.7599,-0.7588,-0.7625,-0.762,-0.762,-0.7628,-0.7696,-0.7711,-0.7674,-0.7793,-0.7755,-0.7764,-0.7781,-0.7793,-0.7802,-0.7798,-0.7639,0,0,0,0,0,-0.7426,-0.7469,-0.7493,-0.7556,-0.7571,-0.7583,-0.7607,-0.7606,-0.7635,-0.7647,-0.7666,-0.7695,-0.7738,-0.7766,-0.7806,-0.7885,-0.7892,-0.792,-0.793,-0.7937,-0.7946,-0.799,-0.8003,-0.7862,-0.7862,-0.7862,0,0,-0.7461,-0.7483,-0.751,-0.7564,-0.7586,-0.7631,-0.7593,-0.7642,-0.7676,-0.7655,-0.7718,-0.7733,-0.7766,-0.7839,-0.7872,-0.7854,-0.7986,-0.7945,-0.7951,-0.7956,-0.7998,-0.8011,-0.8023,-0.7866,-0.7865,-0.7865,0,0,-0.7548,-0.7568,-0.7623,-0.7646,-0.7679,-0.7687,-0.77,-0.773,-0.7739,-0.7803,-0.7788,-0.7828,-0.7901,-0.7925,-0.7947,-0.8044,-0.8031,-0.8057,-0.8107,-0.8149,-0.8161,-0.817,-0.8206,-0.8219,-0.8065,-0.8065,-0.8065,0,-0.7587,-0.7654,-0.7653,-0.7704,-0.7729,-0.7711,-0.7768,-0.779,-0.7835,-0.7853,-0.7831,-0.7923,-0.7943,-0.8022,-0.8046,-0.8064,-0.808,-0.8054,-0.8159,-0.8169,-0.8178,-0.8212,-0.8226,-0.8068,-0.8067,-0.8067,-0.8067,0,-0.7702,-0.7748,-0.7789,-0.7833,-0.7862,-0.7916,-0.7923,-0.7953,-0.7949,-0.7959,-0.8024,-0.8048,-0.8094,-0.8112,-0.8108,-0.8191,-0.8179,-0.8158,-0.8121,-0.8195,-0.8227,-0.824,-0.8072,-0.8071,-0.807,-0.8069,0,0,-0.7814,-0.7856,-0.7872,-0.7892,-0.7927,-0.7964,-0.8017,-0.8061,-0.8087,-0.8118,-0.8163,-0.8225,-0.8207,-0.8232,-0.8231,-0.8268,-0.8345,-0.8243,-0.8244,-0.8262,-0.8439,-0.8455,-0.847,-0.8336,-0.8338,-0.834,-0.8436,0,-0.7904,-0.7997,-0.7998,-0.8084,-0.8128,-0.8111,-0.8158,-0.8185,-0.8195,-0.8235,-0.8246,-0.8291,-0.8262,-0.8277,-0.8313,-0.8328,-0.838,-0.832,-0.8379,-0.8381,-0.8373,-0.8487,-0.8504,-0.8594,-0.8449,-0.8451,-0.8452,0,-0.8023,-0.8058,-0.8148,-0.8179,-0.8197,-0.8238,-0.828,-0.8317,-0.8347,-0.8352,-0.8381,-0.8374,-0.8428,-0.8388,-0.8464,-0.8423,-0.8447,-0.8457,-0.8461,-0.8468,-0.8422,-0.8498,-0.8623,-0.8637,-0.8472,-0.847,-0.8469,0,-0.8098,-0.8168,-0.8231,-0.8249,-0.8285,-0.8315,-0.8331,-0.8359,-0.8386,-0.8422,-0.8439,-0.8481,-0.8504,-0.8537,-0.8542,-0.8511,-0.8618,-0.8578,-0.8625,-0.8625,-0.865,-0.8648,-0.8781,-0.8662,-0.8662,-0.8662,-0.8661,0,-0.82,-0.8256,-0.8266,-0.8305,-0.8367,-0.8368,-0.843,-0.8444,-0.8469,-0.8511,-0.8499,-0.8539,-0.8542,-0.8583,-0.8587,-0.865,-0.866,-0.8667,-0.8668,-0.8669,-0.8668,-0.8686,-0.868,-0.8665,-0.8664,-0.8664,-0.8663,0,-0.8295,-0.8303,-0.8371,-0.84,-0.8409,-0.8454,-0.8478,-0.8516,-0.8525,-0.8579,-0.8591,-0.8606,-0.8654,-0.8661,-0.8717,-0.872,-0.8796,-0.8789,-0.8786,-0.8786,-0.8833,-0.8829,-0.8983,-0.9004,-0.887,-0.8871,-0.8872,0,-0.836,-0.8403,-0.8436,-0.8464,-0.8482,-0.8526,-0.8553,-0.8555,-0.8584,-0.8622,-0.8656,-0.8702,-0.874,-0.8817,-0.8833,-0.8876,-0.8871,-0.8922,-0.8878,-0.8878,-0.8874,-0.8872,-0.8877,-0.8931,-0.8933,-0.8934,-0.8935,0,-0.8476,-0.8478,-0.8518,-0.856,-0.8593,-0.8625,-0.8656,-0.8679,-0.8685,-0.8719,-0.8767,-0.8796,-0.8854,-0.8901,-0.8943,-0.896,-0.895,-0.8948,-0.8962,-0.8965,-0.8961,-0.8965,-0.8811,-0.8945,-0.8944,-0.8943,-0.8943,-0.8942,-0.8559,-0.8597,-0.8627,-0.8672,-0.8695,-0.8725,-0.8762,-0.8776,-0.8816,-0.8863,-0.8862,-0.8916,-0.8946,-0.9002,-0.9022,-0.9065,-0.9048,-0.9067,-0.9073,-0.9078,-0.9083,-0.8953,-0.9072,-0.9072,-0.9071,-0.9071,-0.9071,0,-0.8676,-0.8694,-0.8735,-0.878,-0.8815,-0.8801,-0.8834,-0.8865,-0.8913,-0.8942,-0.8979,-0.9035,-0.908,-0.91,-0.9145,-0.9175,-0.9171,-0.9187,-0.9185,-0.919,-0.9094,-0.9079,-0.9189,-0.9189,-0.9189,-0.9189,-0.9189,-0.9189,-0.8741,-0.8805,-0.881,-0.8886,-0.8904,-0.8957,-0.8977,-0.9005,-0.9028,-0.9091,-0.9129,-0.9141,-0.9167,-0.9213,-0.9254,-0.9259,-0.9276,-0.9295,-0.9297,-0.9208,-0.9196,-0.9185,-0.9171,-0.9298,-0.9298,-0.9389,-0.939,-0.9391]},{"header":{"parameterUnit":"m.s-1","parameterCategory":1,"la1":30.2991,"la2":30.254,"lo1":-89.0895,"lo2":-89.0444,"dy":0.0017,"dx":0.0017,"nx":28,"ny":28,"refTime":"2024-02-13T09:00:00:Z","depth":0,"parameterNumber":3,"parameterNumberName":"V-component_of_WINDS"},"data":[0,0,0,0,0,0,0,0,0,0,0,0,0,0,0,0,0,0,0,0,0,0,0,0,0,0,0,0,0,0,0,0,0,0,0,0,0,0,0,0,0,0,0,0,0,0,0,0,0,0,0,0,0,0,0,0,0,0,-3.3276,-3.3278,0,-3.3411,-3.3413,-3.3414,-3.3384,-3.3382,-3.3379,-3.3377,-3.3513,-3.3519,-3.3525,0,0,0,0,0,0,0,0,0,0,0,0,0,-3.2991,-3.2996,-3.3276,-3.3278,-3.328,-3.3411,-3.3413,-3.3415,-3.3385,-3.3382,-3.3379,-3.3376,-3.3511,-3.3518,-3.3525,0,0,0,0,0,0,0,0,0,0,0,0,0,-3.3119,-3.2998,-3.3276,-3.328,-3.3282,-3.3411,-3.3413,-3.3415,-3.3385,-3.3382,-3.3378,-3.3374,-3.3509,-3.3517,-3.3526,-3.3658,0,0,-3.3554,-3.3558,0,0,0,0,0,0,0,0,-3.3112,-3.313,-3.3278,-3.328,-3.3283,-3.3377,-3.3362,-3.3496,-3.3386,-3.3346,-3.3377,-3.3372,-3.3471,-3.3483,-3.3516,-3.3664,-3.367,-3.3554,-3.356,-3.3564,-3.3566,0,0,0,0,0,0,0,-3.3103,-3.3124,-3.3329,-3.328,-3.3283,-3.3275,-3.3289,-3.3387,-3.3428,-3.3349,-3.3347,-3.3364,-3.3471,-3.3508,-3.3519,-3.3672,-3.3554,-3.3562,-3.3568,-3.3571,-3.3935,-3.3939,0,0,0,0,0,0,-3.3092,-3.3116,-3.3325,-3.3334,-3.3186,-3.3283,-3.3299,-3.3351,-3.3427,-3.3435,-3.3367,-3.3362,-3.3494,-3.3509,-3.3524,-3.3683,-3.3564,-3.3572,-3.3577,-3.3931,-3.3936,-3.3941,0,0,0,0,0,0,-3.3086,-3.3111,-3.332,-3.3225,-3.3251,-3.3292,-3.335,-3.3355,-3.3392,-3.344,-3.3447,-3.3397,-3.3492,-3.3511,-3.3625,-3.3688,-3.3576,-3.3584,-3.3926,-3.3932,-3.3938,-3.4003,0,0,0,0,0,0,-3.3078,-3.3109,-3.316,-3.3226,-3.3256,-3.342,-3.3354,-3.3361,-3.3407,-3.3402,-3.347,-3.3478,-3.349,-3.3612,-3.3634,-3.3698,-3.3591,-3.392,-3.3929,-3.3936,-3.3996,-3.4011,-3.4024,0,0,0,0,0,-3.3068,-3.3172,-3.3163,-3.3188,-3.332,-3.3423,-3.344,-3.3453,-3.3413,-3.3464,-3.3495,-3.3476,-3.3677,-3.3624,-3.3648,-3.3716,-3.3916,-3.3926,-3.3936,-3.3989,-3.4008,-3.4024,0,0,0,0,0,0,-3.3112,-3.3181,-3.3171,-3.33,-3.3356,-3.3418,-3.3483,-3.3472,-3.354,-3.3532,-3.3544,-3.356,-3.3676,-3.3707,-3.3647,-3.3848,-3.3791,-3.3806,-3.3823,-3.3842,-3.3856,-3.3846,-3.3599,0,0,0,0,0,-3.3137,-3.3215,-3.3271,-3.3379,-3.3408,-3.3441,-3.3486,-3.3491,-3.3549,-3.3573,-3.3612,-3.3669,-3.3745,-3.3795,-3.3867,-3.4,-3.4014,-3.4059,-3.4073,-3.4084,-3.4097,-3.417,-3.4191,-3.3972,-3.3972,-3.3972,0,0,-3.3189,-3.3236,-3.3285,-3.3389,-3.3433,-3.3514,-3.3461,-3.3548,-3.3608,-3.3586,-3.3696,-3.3727,-3.3791,-3.3915,-3.3971,-3.3944,-3.4161,-3.4097,-3.4106,-3.4112,-3.4182,-3.4203,-3.4221,-3.3979,-3.3978,-3.3977,0,0,-3.3324,-3.3368,-3.3463,-3.3509,-3.3576,-3.3598,-3.3621,-3.3684,-3.3705,-3.3816,-3.3801,-3.3871,-3.4002,-3.4049,-3.4089,-3.4243,-3.4228,-3.4266,-3.4341,-3.4412,-3.4429,-3.4445,-3.45,-3.452,-3.4279,-3.4279,-3.4279,0,-3.338,-3.3502,-3.3513,-3.3603,-3.3649,-3.3634,-3.373,-3.3773,-3.3861,-3.3893,-3.3862,-3.4026,-3.4068,-3.4203,-3.4241,-3.4274,-3.43,-3.4259,-3.4426,-3.4442,-3.4456,-3.4509,-3.453,-3.4284,-3.4283,-3.4283,-3.4282,0,-3.3567,-3.3651,-3.372,-3.3807,-3.3861,-3.3953,-3.3979,-3.4032,-3.4032,-3.4057,-3.417,-3.422,-3.4303,-3.4335,-3.4335,-3.447,-3.4451,-3.4423,-3.4366,-3.4481,-3.4531,-3.4552,-3.429,-3.4288,-3.4287,-3.4286,0,0,-3.3734,-3.3826,-3.3852,-3.3891,-3.3964,-3.403,-3.4121,-3.4203,-3.4249,-3.431,-3.4387,-3.4498,-3.4473,-3.4519,-3.4524,-3.4587,-3.4706,-3.4551,-3.4552,-3.4578,-3.4858,-3.488,-3.4903,-3.4696,-3.47,-3.4703,-3.4853,0,-3.3877,-3.404,-3.4054,-3.42,-3.4278,-3.4264,-3.4344,-3.4397,-3.4423,-3.4492,-3.4519,-3.4599,-3.4559,-3.4587,-3.4647,-3.4679,-3.4763,-3.4668,-3.4768,-3.4771,-3.4753,-3.4929,-3.4952,-3.5091,-3.4873,-3.4876,-3.4878,0,-3.4066,-3.4134,-3.4288,-3.4351,-3.4385,-3.4456,-3.4533,-3.4599,-3.466,-3.4674,-3.4726,-3.4723,-3.4817,-3.4757,-3.4886,-3.4821,-3.4863,-3.4884,-3.489,-3.49,-3.4832,-3.4945,-3.5136,-3.5157,-3.4909,-3.4907,-3.4904,0,-3.4174,-3.4303,-3.4412,-3.4446,-3.4522,-3.4573,-3.4607,-3.4664,-3.4712,-3.4779,-3.481,-3.4886,-3.4928,-3.4987,-3.5005,-3.4959,-3.5134,-3.5075,-3.5148,-3.5148,-3.5186,-3.5184,-3.5387,-3.5212,-3.5211,-3.5211,-3.5211,0,-3.4332,-3.4427,-3.4462,-3.4529,-3.4635,-3.465,-3.4754,-3.4785,-3.4836,-3.4908,-3.49,-3.4968,-3.4988,-3.5059,-3.5073,-3.5179,-3.5197,-3.5211,-3.5214,-3.5213,-3.5211,-3.524,-3.5232,-3.5217,-3.5215,-3.5214,-3.5213,0,-3.4471,-3.4498,-3.4616,-3.4679,-3.4697,-3.4772,-3.4826,-3.489,-3.4914,-3.5006,-3.5029,-3.5066,-3.515,-3.5174,-3.5274,-3.5284,-3.5408,-3.5401,-3.5388,-3.5388,-3.546,-3.5454,-3.569,-3.5722,-3.5525,-3.5527,-3.5529,0,-3.4571,-3.4644,-3.4715,-3.4763,-3.48,-3.4878,-3.4928,-3.4945,-3.4997,-3.5071,-3.5127,-3.521,-3.5277,-3.5412,-3.5447,-3.5524,-3.552,-3.5598,-3.5531,-3.5528,-3.5522,-3.5518,-3.5525,-3.561,-3.5612,-3.5614,-3.5615,0,-3.4745,-3.4755,-3.4828,-3.4906,-3.4966,-3.5027,-3.5086,-3.5126,-3.5151,-3.521,-3.5296,-3.5349,-3.5452,-3.5534,-3.5612,-3.5646,-3.5636,-3.5636,-3.5657,-3.5657,-3.5646,-3.5654,-3.5423,-3.5631,-3.5629,-3.5628,-3.5627,-3.5627,-3.4868,-3.4933,-3.4993,-3.5074,-3.5121,-3.5177,-3.5241,-3.5273,-3.5346,-3.5431,-3.5436,-3.553,-3.5588,-3.5692,-3.573,-3.5804,-3.578,-3.5811,-3.5819,-3.5826,-3.5833,-3.5634,-3.5818,-3.5817,-3.5817,-3.5816,-3.5816,0,-3.5043,-3.5082,-3.5156,-3.524,-3.5304,-3.5289,-3.5353,-3.5408,-3.5491,-3.5546,-3.5613,-3.5712,-3.5792,-3.5835,-3.5914,-3.5965,-3.5962,-3.5985,-3.5982,-3.599,-3.5849,-3.5823,-3.5986,-3.5986,-3.5986,-3.5986,-3.5986,-3.5986,-3.5142,-3.5251,-3.5268,-3.54,-3.5437,-3.553,-3.5568,-3.5619,-3.5664,-3.5775,-3.5842,-3.587,-3.592,-3.6003,-3.6076,-3.6086,-3.6116,-3.6142,-3.615,-3.6017,-3.6,-3.5983,-3.5959,-3.6149,-3.6149,-3.6286,-3.6287,-3.6288]}]]